Location: ??????
(55.2000°N, 38.3000°E)
Time: 08:32:32
(UTC+00:00)

SJ 16-02 - Pass Details

Date: 15 November 2025
Orbit: 585 x 594 km, 75.0° (Epoch: 14 December)

Event Time Altitude Azimuth Distance (km) Brightness Sun altitude
Exits shadow 02:16:02 41° 188° (S) 867 2.0 -23.0°
Drops below altitude 10° 02:18:57 10° 169° (S) 1,913 4.0 -22.6°
Sets 02:21:10 0° 166° (SSE) 2,808 4.9 -22.2°
